Home > Weather > Würzburg > Past weeks

Flag for Germany Weather for the Past 2 Weeks in Würzburg, Bavaria, Germany

Now
43 °F

Partly sunny.


Feels Like: 40 °F
Forecast: 43 / 62 °F
Wind: 5 mph from Southwest

Location: Niederstetten

Current Time: Apr 30, 2016 at 9:46:42 AM

Latest Report: Apr 30, 2016 at 8:20 AM


Visibility: N/A

Pressure: 30.01 "Hg

Humidity: 71%

Dew Point: 34 °F

Location of WürzburgLocation

Historic Weather in Würzburg — Graph

°F

Würzburg Temperature Yesterday

Maximum temperature yesterday: 55 °F (at 4:20 PM)
Minimum temperature yesterday: 32 °F (at 4:20 AM)
Average temperature yesterday: 45 °F

High & Low Weather Summary for the Past Weeks

 TemperatureHumidityPressure
High63 °F (Apr 21, 3:20 PM)100% (Apr 16, 9:20 AM)30.39 "Hg (Apr 16, 9:20 AM)
Low30 °F (Apr 24, 6:20 AM)30% (Apr 20, 3:20 PM)29.50 "Hg (Apr 26, 5:20 AM)
Average43 °F75%29.93 "Hg
* Reported Apr 15 7:20 AM — Apr 30 7:20 AM, Würzburg, Weather by CustomWeather, © 2016

Note: Actual official high and low records may vary slightly from our data, if they occured in-between our weather recording intervals... More about our weather records

Advertising

Würzburg Weather History for the Previous 24 Hours

Scroll right to see more
 ConditionsComfort  
Time TempWeatherWind HumidityBarometerVisibility
7:20 AM
Sat, Apr 30
39 °FPartly sunny.3 mph70%30.01 "HgN/A
6:20 AM36 °FPassing clouds.3 mph81%30.01 "HgN/A
5:20 AM37 °FPassing clouds.2 mph75%30.01 "HgN/A
4:20 AM39 °FPassing clouds.2 mph70%30.01 "HgN/A
3:20 AM41 °FQuite cool.3 mph66%30.01 "HgN/A
2:20 AM41 °FQuite cool.2 mph66%30.01 "HgN/A
1:20 AM45 °FQuite cool.2 mph61%30.01 "HgN/A
12:20 AM41 °FQuite cool.5 mph70%30.04 "HgN/A
11:20 PM
Fri, Apr 29
43 °FPassing clouds.2 mph66%30.04 "HgN/A
10:20 PM46 °FPassing clouds.2 mph57%30.04 "HgN/A
9:20 PM46 °FPartly sunny.2 mph57%30.04 "HgN/A
8:20 PM52 °FPartly sunny.5 mph47%30.01 "HgN/A
7:20 PM54 °FScattered clouds.2 mph41%30.01 "HgN/A
6:20 PM55 °FScattered clouds.7 mph38%30.01 "HgN/A
5:20 PM55 °FPassing clouds.3 mph38%30.04 "HgN/A
4:20 PM55 °FScattered clouds.7 mph41%30.04 "HgN/A
3:20 PM54 °FScattered clouds.7 mph35%30.04 "HgN/A
2:20 PM54 °FScattered clouds.9 mph38%30.04 "HgN/A
1:20 PM54 °FScattered clouds.8 mph41%30.04 "HgN/A
12:20 PM52 °FScattered clouds.8 mph44%30.07 "HgN/A
11:20 AM50 °FPassing clouds.9 mph47%30.07 "HgN/A
10:20 AM48 °FPassing clouds.9 mph54%30.07 "HgN/A
9:20 AM45 °FPassing clouds.7 mph66%30.07 "HgN/A
Weather by CustomWeather, © 2016

See weather overviewHow to use our weather pages